Location: Asheville, NC
(35.6000°N, 82.5500°W)
Time: 03:44:18
(UTC-04:00)

HO-68 - Pass Details

Date: 06 January 2018
Orbit: 1192 x 1205 km, 100.1° (Epoch: 24 June)

Event Time Altitude Azimuth Distance (km) Brightness Sun altitude
Rises 19:49:05 0° 194° (SSW) 4,090 ? -27.2°
Reaches altitude 10° 19:52:06 10° 205° (SSW) 3,127 ? -27.8°
Maximum altitude 19:58:10 30° 263° (W) 2,012 ? -29.0°
Drops below altitude 10° 20:04:16 10° 322° (NW) 3,134 ? -30.2°
Sets 20:07:19 0° 333° (NNW) 4,100 ? -30.8°
